{"data":{"norad_id":42967,"intl_designator":"2017-063A","name":"SES-11 (ECHOSTAR 105)","alt_names":[],"object_type":"PAYLOAD","status":"ACTIVE","operator":null,"country":"SES","launch_date":"2017-10-11","launch_site_code":"AFETR","launch_vehicle":null,"mission":null,"orbit_class":"UNKNOWN","rcs_meters":null,"size_class":null,"mass_kg":null,"dimensions":null,"purposes":["comms"],"wikipedia_slug":null,"has_3d_model":false,"image_url":null,"decayed_at":null,"tle_current":{"epoch":"2026-05-25T04:33:56.511360Z","epoch_age_seconds":54555,"freshness":"FRESH","line1":"1 42967U 17063A   26145.19023740 -.00000091  00000+0  00000+0 0  9998","line2":"2 42967   0.0210   9.4931 0002775  47.5495 149.2733  1.00271574 31497","mean_motion":1.00271574,"eccentricity":0.0002775,"inclination_deg":0.021,"raan_deg":9.4931,"arg_perigee_deg":47.5495,"mean_anomaly_deg":149.2733,"bstar":0,"rev_number":3149,"period_min":1436.099925987,"perigee_km":35774.95338272,"apogee_km":35798.354841788,"semimajor_km":42164.791112254,"source":"CELESTRAK","updated_at":"2026-05-25T13:38:14.512760Z"}}}